Location: Boston
(42.3580°N, 71.0600°W)
Time: 08:16:33
(UTC-05:00)

OTV 5 (USA 277) - Pass Details

Date: 16 October 2017
Orbit: 404 x 417 km, 43.0° (Epoch: 07 September)

Event Time Altitude Azimuth Distance (km) Brightness Sun altitude
Rises 19:29:03 0° 276° (W) 2,355 ? -17.2°
Reaches altitude 10° 19:31:10 10° 277° (W) 1,491 ? -17.5°
Maximum altitude 19:34:32 81° 3° (N) 426 ? -18.2°
Enters shadow 19:35:01 62° 77° (ENE) 471 ? -18.3°
